Regional Weather Roundup
Issued by NWS

Home | Current Version | Previous Version | Text Only | Print | Product List | Glossary Off
Versions: 1 2 3 4 5 6 7 8 9 10 11 12 13 14 15 16 17 18 19 20 21 22 23 24 25 26 27

000
ASUS45 KSLC 190510
RWRUT

UTAH REGIONAL WEATHER ROUNDUP
NATIONAL WEATHER SERVICE SALT LAKE CITY UT
1000 PM MST WED JAN 18 2017

UTZ001>011-023>025-190600-

NORTHERN UTAH

CITY           SKY/WX    TMP DP  RH WIND       PRES   REMARKS
BRIGHAM CITY     N/A     22  18  81 CALM      29.92S
HILL AFB       MOCLDY    26  16  66 E15       29.87F WCI  13
LOGAN          CLOUDY    15  10  80 CALM      29.91F HAZE
OGDEN          CLOUDY    22  19  89 W3        29.89S FOG
SALT LAKE CITY CLOUDY    25  22  88 N7        29.89F FOG     WCI  17
TOOELE VALLEY  CLOUDY    28  25  86 CALM      29.89F FOG
WENDOVER       CLOUDY    25  19  80 NE6       29.90F WCI  18
HEBER CITY     CLOUDY    10   9  92 E3        29.88F
WEST JORDAN    CLOUDY    25  25 100 N5        29.88S WCI  19

$$

UTZ011>015-024>027-190600-

CENTRAL/NORTHEAST UTAH

CITY           SKY/WX    TMP DP  RH WIND       PRES   REMARKS
PROVO AIRPORT  CLOUDY    26  24  92 CALM      29.91F FOG
MOAB/CANYONLAN PTCLDY    29  26  89 W3        29.97F
DELTA          PTCLDY    36  27  69 S12       29.87F WCI  27
PRICE          PTCLDY    18  11  74 N3        29.96F
ROOSEVELT      CLOUDY     3   0  85 CALM      30.07F
VERNAL         CLOUDY     7   3  84 N5        30.04F WCI  -2

$$

UTZ013>016-019>022-027-190600-

SOUTHERN UTAH

CITY           SKY/WX    TMP DP  RH WIND       PRES   REMARKS
BRYCE CANYON   PTCLDY     2  -2  83 SW5       29.98S WCI  -8
CEDAR CITY     PTCLDY    41  18  39 SW16G23   29.90F
MILFORD        MOCLDY    35  24  64 S16       29.90F WCI  25
ST GEORGE      PTCLDY    43  30  61 CALM      29.99F
HANKSVILLE     CLEAR     30  27  86 MISG      30.00F
BLANDING       CLEAR     28  25  87 NE6       30.06S WCI  22

$$

REGIONAL REPORTS     COLORADO/ARIZONA

CITY           SKY/WX    TMP DP  RH WIND       PRES   REMARKS
CRAIG, CO      CLOUDY     7   3  84 SE3       29.97F
GRAND JUNCTION CLOUDY    30  28  92 E3        29.98F
RIFLE, CO      CLOUDY    28  22  78 SE6       29.99F WCI  22
MONTROSE, CO   CLOUDY    28  24  85 S8        30.02S WCI  20
CORTEZ, CO     CLOUDY    27  26  96 NE5       30.00F WCI  22
COLORADO CITY  CLOUDY    32  30  93 CALM      30.02F
PAGE, AZ       CLEAR     39  28  64 SW5       29.97S
GRAND CANYON   CLEAR     25  22  88 CALM      30.05F
KINGMAN, AZ    MOCLDY    45  26  47 SW12      30.03S
FLAGSTAFF, AZ  CLOUDY    33  31  92 SW12      30.07F WCI  24

$$

REGIONAL REPORTS    NEVADA/IDAHO/WYOMING

CITY           SKY/WX    TMP DP  RH WIND       PRES   REMARKS
LAS VEGAS, NV  CLOUDY    56  25  30 SW7       29.94R
ELY, NY        CLOUDY    32  21  64 S17       29.84F WCI  21
ELKO, NV       LGT SNOW  26  21  81 CALM      29.81S VSB 1
POCATELLO, ID  CLOUDY    24  19  81 CALM      29.83S
BURLEY, ID     RAIN      34  30  85 SE7       29.76F WCI  28
FORT BRIDGER,    N/A     25  11  56 W8        29.88S WCI  16
EVANSTON, WY   CLOUDY    24   8  50 S7        29.84F WCI  16
ROCK SPRINGS,  CLOUDY    10   5  80 E3        29.87F

$$




USA.gov is the U.S. government's official web portal to all federal, state and local government web resources and services.